�N����,����,�~����,�C��,���x,�C��,����,���ϕ���,�ő�u�ԕ���,�ő厞����,���˗�,�I�_���x,�n�����x,�ő啗���N��,DTYPE
"16/05/08","00:10",0.0,11.4,86.1,1010.4,293.8,1.6,2.1,295.3,0.00,9.2,16.4,"00:01:46",1
"16/05/08","00:20",0.0,11.1,86.1,1010.7,304.7,1.1,1.9,329.5,0.00,8.9,16.5,"00:15:58",1
"16/05/08","00:30",0.0,11.0,86.1,1010.2,319.3,1.5,2.7,335.9,0.00,8.8,16.3,"00:24:24",1
"16/05/08","00:40",0.0,10.8,86.2,1010.2,305.2,1.2,1.9,313.2,0.00,8.6,16.1,"00:36:52",1
"16/05/08","00:50",0.0,10.6,86.6,1010.4,301.4,1.1,1.9,328.1,0.00,8.5,16.1,"00:48:44",1
"16/05/08","01:00",0.0,10.7,86.3,1010.4,308.9,1.2,1.9,341.3,0.00,8.5,15.8,"00:50:32",1
"16/05/08","01:10",0.0,10.7,86.3,1010.7,315.4,1.5,2.2,335.9,0.00,8.5,16.1,"01:03:20",1
"16/05/08","01:20",0.0,10.9,85.0,1010.4,317.9,1.6,2.4,331.0,0.00,8.5,16.1,"01:12:06",1
"16/05/08","01:30",0.0,10.9,84.3,1010.2,312.9,1.3,1.8,319.8,0.00,8.4,15.9,"01:23:52",1
"16/05/08","01:40",0.0,10.6,84.4,1010.4,289.2,1.1,1.6,301.8,0.00,8.1,15.8,"01:30:18",1
"16/05/08","01:50",0.0,10.5,85.3,1010.7,265.8,1.2,2.0,339.3,0.00,8.2,15.8,"01:48:30",1
"16/05/08","02:00",0.0,10.5,84.8,1010.7,288.8,1.1,1.9,328.1,0.00,8.1,15.7,"01:54:52",1
"16/05/08","02:10",0.0,10.3,85.3,1010.4,294.7,1.1,2.4,355.0,0.00,8.0,15.6,"02:03:06",1
"16/05/08","02:20",0.0,10.1,86.4,1010.9,302.7,1.2,2.4,336.5,0.00,8.0,15.6,"02:12:28",1
"16/05/08","02:30",0.0,10.1,87.0,1010.9,314.3,1.3,2.1,332.4,0.00,8.1,15.7,"02:21:12",1
"16/05/08","02:40",0.0,9.9,87.7,1011.2,304.9,1.2,1.7,300.9,0.00,8.0,15.4,"02:30:14",1
"16/05/08","02:50",0.0,9.8,88.8,1011.4,309.3,1.3,1.8,322.5,0.00,8.1,15.5,"02:49:38",1
"16/05/08","03:00",0.0,9.7,89.1,1011.2,290.7,1.1,1.7,303.9,0.00,8.0,15.2,"02:50:16",1
"16/05/08","03:10",0.0,9.6,89.5,1010.9,303.1,1.2,2.6,331.4,0.00,8.0,15.2,"03:05:04",1
"16/05/08","03:20",0.0,9.6,90.0,1011.2,322.7,1.2,2.6,303.2,0.00,8.1,15.4,"03:17:28",1
"16/05/08","03:30",0.0,9.3,90.3,1011.4,289.0,1.2,2.4,326.3,0.00,7.8,15.3,"03:25:36",1
"16/05/08","03:40",0.0,9.3,90.9,1011.4,303.1,0.8,1.6,341.9,0.00,7.9,15.2,"03:31:30",1
"16/05/08","03:50",0.0,9.2,90.9,1011.4,301.3,1.3,2.1,330.6,0.00,7.8,15.1,"03:42:28",1
"16/05/08","04:00",0.0,9.0,91.4,1011.4,306.6,1.3,2.4,336.5,0.00,7.7,15.1,"03:51:08",1
"16/05/08","04:10",0.0,8.9,91.5,1011.6,287.6,1.2,1.6,280.6,0.00,7.6,15.0,"04:08:26",1
"16/05/08","04:20",0.0,8.9,91.6,1012.1,300.1,1.3,2.0,319.9,0.00,7.6,14.8,"04:17:08",1
"16/05/08","04:30",0.0,8.8,91.6,1011.9,289.2,1.2,2.0,318.2,0.00,7.5,15.0,"04:26:52",1
"16/05/08","04:40",0.0,8.8,91.4,1012.1,312.6,1.3,1.9,313.7,0.00,7.5,15.0,"04:32:30",1
"16/05/08","04:50",0.0,8.7,91.6,1012.1,307.7,1.6,2.0,313.5,0.00,7.5,15.1,"04:44:52",1
"16/05/08","05:00",0.0,8.6,92.4,1012.1,297.2,1.2,1.6,317.2,0.00,7.5,14.7,"04:53:14",1
"16/05/08","05:10",0.0,8.5,92.8,1012.3,300.7,1.3,2.2,335.5,0.00,7.4,14.7,"05:07:30",1
"16/05/08","05:20",0.0,8.5,93.0,1012.3,321.0,0.7,2.0,332.6,0.00,7.5,14.7,"05:10:08",1
"16/05/08","05:30",0.0,8.5,93.3,1012.1,301.6,1.3,2.4,335.8,0.00,7.5,14.8,"05:24:22",1
"16/05/08","05:40",0.0,8.8,93.9,1012.3,309.9,1.3,1.9,311.7,0.00,7.9,14.6,"05:32:00",1
"16/05/08","05:50",0.0,9.2,93.9,1012.6,311.1,1.5,1.9,311.4,0.00,8.3,14.8,"05:44:16",1
"16/05/08","06:00",0.0,9.8,93.5,1012.8,305.4,1.5,2.0,306.8,0.01,8.8,14.7,"05:56:32",1
"16/05/08","06:10",0.0,10.6,92.4,1012.8,307.2,1.2,1.7,302.9,0.02,9.5,14.7,"06:04:40",1
"16/05/08","06:20",0.0,11.6,89.2,1012.8,327.1,1.1,1.8,342.1,0.04,9.9,15.0,"06:19:12",1
"16/05/08","06:30",0.0,12.7,85.0,1013.0,338.4,1.0,1.6,341.9,0.06,10.3,14.9,"06:20:16",1
"16/05/08","06:40",0.0,13.5,82.8,1013.5,336.8,0.7,1.2,339.2,0.08,10.7,14.5,"06:37:28",1
"16/05/08","06:50",0.0,14.5,79.2,1013.5,324.2,1.2,1.8,338.1,0.10,11.0,14.7,"06:45:12",1
"16/05/08","07:00",0.0,15.2,75.0,1013.8,330.6,1.6,2.8,343.0,0.13,10.8,14.7,"06:59:20",1
"16/05/08","07:10",0.0,15.9,71.6,1013.8,327.0,1.3,3.1,343.6,0.16,10.8,14.8,"07:06:32",1
"16/05/08","07:20",0.0,16.6,67.9,1013.8,328.8,1.2,2.4,326.5,0.18,10.7,14.8,"07:13:28",1
"16/05/08","07:30",0.0,16.9,65.9,1014.0,306.0,1.1,2.8,344.1,0.20,10.5,15.1,"07:20:16",1
"16/05/08","07:40",0.0,16.6,67.0,1014.0,207.5,1.1,2.4,229.1,0.22,10.5,15.1,"07:30:32",1
"16/05/08","07:50",0.0,17.2,67.6,1013.8,187.1,1.2,2.2,176.8,0.26,11.2,15.2,"07:40:08",1
"16/05/08","08:00",0.0,18.0,62.7,1013.5,153.8,0.6,1.4,124.4,0.29,10.8,15.1,"07:50:08",1
"16/05/08","08:10",0.0,18.3,63.9,1013.8,315.0,1.1,2.1,328.7,0.31,11.4,15.3,"08:07:04",1
"16/05/08","08:20",0.0,18.7,58.5,1013.3,314.2,1.1,3.4,352.1,0.34,10.4,15.4,"08:15:28",1
"16/05/08","08:30",0.0,19.3,57.7,1013.0,217.6,0.6,2.0,239.7,0.36,10.8,15.5,"08:22:32",1
"16/05/08","08:40",0.0,18.9,57.6,1013.0,168.2,1.5,2.8,167.1,0.37,10.4,15.7,"08:39:20",1
"16/05/08","08:50",0.0,19.0,56.4,1012.8,161.1,1.7,4.3,137.1,0.40,10.2,15.7,"08:44:24",1
"16/05/08","09:00",0.0,19.7,55.8,1013.0,212.2,0.5,1.6,231.0,0.41,10.7,15.9,"08:52:40",1
"16/05/08","09:10",0.0,19.4,58.7,1013.0,229.9,1.5,2.7,234.8,0.43,11.2,16.0,"09:02:24",1
"16/05/08","09:20",0.0,19.7,58.2,1013.0,278.8,1.5,3.2,235.0,0.45,11.3,16.2,"09:18:16",1
"16/05/08","09:30",0.0,20.1,53.7,1013.0,218.9,1.5,3.1,213.7,0.46,10.5,16.2,"09:21:12",1
"16/05/08","09:40",0.0,20.1,53.4,1013.0,347.9,1.1,4.1,224.4,0.49,10.4,16.7,"09:31:52",1
"16/05/08","09:50",0.0,20.8,54.6,1012.6,207.4,0.8,2.7,229.0,0.49,11.4,16.7,"09:45:36",1
"16/05/08","10:00",0.0,21.1,50.6,1012.8,274.7,1.5,3.2,211.3,0.53,10.5,16.9,"09:52:32",1
"16/05/08","10:10",0.0,20.7,51.7,1012.6,240.3,1.6,3.5,229.2,0.53,10.5,17.1,"10:05:36",1
"16/05/08","10:20",0.0,21.5,52.8,1012.6,281.0,1.0,2.4,196.1,0.51,11.5,17.2,"10:19:12",1
"16/05/08","10:30",0.0,21.4,47.3,1012.6,261.9,1.3,3.9,222.6,0.53,9.8,17.3,"10:29:04",1
"16/05/08","10:40",0.0,21.8,50.4,1012.6,201.3,1.5,3.3,156.2,0.51,11.1,17.4,"10:37:12",1
"16/05/08","10:50",0.0,21.6,47.2,1012.3,251.0,0.8,2.7,232.8,0.44,9.9,17.8,"10:41:36",1
"16/05/08","11:00",0.0,21.8,47.0,1011.6,171.8,1.5,3.6,169.9,0.45,10.0,17.9,"10:50:40",1
"16/05/08","11:10",0.0,22.1,46.0,1011.9,209.3,1.2,4.2,201.7,0.47,10.0,18.0,"11:08:40",1
"16/05/08","11:20",0.0,22.5,45.6,1011.9,164.1,1.2,2.9,195.1,0.47,10.2,18.3,"11:12:24",1
"16/05/08","11:30",0.0,22.5,45.3,1011.4,204.4,1.2,2.8,230.8,0.49,10.1,18.2,"11:25:20",1
"16/05/08","11:40",0.0,23.1,44.3,1011.4,293.1,1.0,2.9,347.1,0.52,10.3,18.5,"11:32:16",1
"16/05/08","11:50",0.0,22.9,44.1,1011.6,187.0,1.6,3.3,197.2,0.48,10.1,18.7,"11:45:52",1
"16/05/08","12:00",0.0,23.1,41.2,1011.2,171.3,1.1,2.7,153.1,0.46,9.3,18.7,"11:52:00",1
"16/05/08","12:10",0.0,23.2,40.0,1010.9,201.7,1.7,3.4,206.3,0.44,8.9,18.9,"12:06:00",1
"16/05/08","12:20",0.0,23.6,43.7,1011.2,227.3,1.5,4.7,203.6,0.49,10.6,18.9,"12:10:32",1
"16/05/08","12:30",0.0,23.7,40.7,1010.4,213.8,2.1,5.9,189.5,0.49,9.6,19.3,"12:27:12",1
"16/05/08","12:40",0.0,24.1,35.2,1010.4,139.9,1.5,4.3,184.4,0.58,7.8,19.2,"12:30:48",1
"16/05/08","12:50",0.0,24.1,37.7,1010.4,214.7,1.2,3.7,214.5,0.51,8.8,19.3,"12:46:40",1
"16/05/08","13:00",0.0,24.6,36.6,1010.2,205.7,1.0,3.2,216.8,0.53,8.8,19.5,"12:50:48",1
"16/05/08","13:10",0.0,24.5,35.0,1010.0,193.3,1.6,3.4,193.7,0.48,8.1,19.6,"13:03:44",1
"16/05/08","13:20",0.0,24.7,34.3,1009.7,116.1,1.6,3.2,134.8,0.56,8.0,19.8,"13:17:36",1
"16/05/08","13:30",0.0,25.1,37.5,1009.5,156.7,2.0,3.3,128.8,0.56,9.6,19.9,"13:27:52",1
"16/05/08","13:40",0.0,25.2,28.5,1010.0,183.4,2.2,5.1,195.9,0.58,5.7,19.9,"13:37:28",1
"16/05/08","13:50",0.0,25.4,29.0,1009.5,173.4,2.0,4.5,196.0,0.56,6.1,20.1,"13:47:04",1
"16/05/08","14:00",0.0,25.6,28.9,1009.3,219.1,1.3,4.2,225.1,0.54,6.3,20.2,"13:56:40",1
"16/05/08","14:10",0.0,25.8,28.7,1009.3,240.4,1.8,4.4,220.2,0.53,6.3,20.2,"14:05:04",1
"16/05/08","14:20",0.0,26.2,27.4,1009.3,241.1,1.5,3.6,233.0,0.50,6.0,20.4,"14:15:36",1
"16/05/08","14:30",0.0,26.4,25.3,1009.5,211.7,1.3,2.8,227.5,0.52,5.0,20.3,"14:27:36",1
"16/05/08","14:40",0.0,26.0,29.0,1009.3,180.9,2.1,4.8,225.1,0.49,6.6,20.6,"14:37:44",1
"16/05/08","14:50",0.0,26.0,27.1,1009.3,151.3,1.1,3.1,132.5,0.44,5.7,20.6,"14:48:56",1
"16/05/08","15:00",0.0,26.3,28.3,1008.8,174.2,1.8,4.4,150.9,0.43,6.5,20.7,"14:52:16",1
"16/05/08","15:10",0.0,26.1,25.5,1008.3,230.0,1.6,4.4,230.2,0.41,4.9,20.8,"15:03:36",1
"16/05/08","15:20",0.0,26.2,25.7,1008.3,259.3,1.6,3.9,168.8,0.39,5.1,20.9,"15:11:44",1
"16/05/08","15:30",0.0,25.6,23.2,1008.6,264.6,1.5,3.1,222.0,0.33,3.1,21.0,"15:28:32",1
"16/05/08","15:40",0.0,26.0,24.9,1008.8,223.5,1.7,3.7,204.9,0.36,4.5,21.1,"15:32:00",1
"16/05/08","15:50",0.0,25.9,24.0,1008.8,246.6,1.3,2.7,229.2,0.34,3.8,21.0,"15:46:08",1
"16/05/08","16:00",0.0,26.3,23.2,1008.8,229.0,1.7,3.6,214.8,0.32,3.7,21.0,"15:54:00",1
"16/05/08","16:10",0.0,26.3,31.7,1008.3,162.9,1.0,2.6,190.4,0.27,8.2,21.2,"16:04:24",1
"16/05/08","16:20",0.0,25.5,34.5,1008.8,34.8,1.7,4.3,341.1,0.19,8.8,21.0,"16:14:40",1
"16/05/08","16:30",0.0,24.8,35.2,1009.0,142.8,1.6,3.2,175.1,0.19,8.4,21.1,"16:24:08",1
"16/05/08","16:40",0.0,24.4,34.6,1009.0,120.5,1.5,3.4,112.6,0.16,7.8,20.9,"16:35:20",1
"16/05/08","16:50",0.0,24.4,35.4,1009.0,82.5,1.0,2.7,31.0,0.14,8.2,21.0,"16:44:16",1
"16/05/08","17:00",0.0,24.0,35.7,1008.8,128.5,1.2,2.9,117.2,0.06,7.9,20.7,"16:54:24",1
"16/05/08","17:10",0.0,23.9,37.4,1009.0,83.0,1.0,2.6,28.0,0.05,8.5,20.9,"17:00:32",1
"16/05/08","17:20",0.0,23.6,36.9,1009.3,121.5,1.3,2.7,106.7,0.05,8.1,20.8,"17:11:44",1
"16/05/08","17:30",0.0,23.3,37.7,1009.0,95.8,1.1,2.9,108.3,0.04,8.1,20.8,"17:23:28",1
"16/05/08","17:40",0.0,22.9,39.3,1009.5,75.4,0.8,1.8,46.0,0.02,8.4,20.5,"17:31:52",1
"16/05/08","17:50",0.0,22.7,40.2,1009.3,347.2,0.5,1.1,27.3,0.02,8.5,20.5,"17:48:40",1
"16/05/08","18:00",0.0,22.3,41.2,1009.0,66.2,0.6,1.3,68.8,0.02,8.5,20.5,"17:56:16",1
"16/05/08","18:10",0.0,21.9,41.3,1009.5,92.7,0.8,1.9,32.4,0.01,8.2,20.3,"18:04:48",1
"16/05/08","18:20",0.0,21.5,42.9,1009.5,104.0,1.0,3.5,113.3,0.00,8.4,20.2,"18:12:08",1
"16/05/08","18:30",0.0,21.2,46.1,1009.5,353.2,0.8,1.6,98.2,0.00,9.2,20.2,"18:21:52",1
"16/05/08","18:40",0.0,20.8,48.8,1010.0,314.2,0.7,1.3,4.8,0.00,9.7,20.2,"18:31:36",1
"16/05/08","18:50",0.0,20.1,54.7,1010.0,329.4,1.6,2.7,347.7,0.00,10.7,19.8,"18:44:08",1
"16/05/08","19:00",0.0,19.3,56.4,1010.2,315.3,1.6,2.2,317.8,0.00,10.5,19.8,"18:55:52",1
"16/05/08","19:10",0.0,18.8,56.8,1010.4,304.3,1.0,1.4,325.9,0.00,10.1,19.7,"19:03:04",1
"16/05/08","19:20",0.0,18.6,58.6,1010.4,315.9,1.2,1.8,335.3,0.00,10.4,19.7,"19:15:36",1
"16/05/08","19:30",0.0,18.3,60.8,1010.4,324.4,1.1,1.8,336.4,0.00,10.6,19.7,"19:28:56",1
"16/05/08","19:40",0.0,18.0,62.1,1010.4,315.6,1.1,1.6,321.7,0.00,10.7,19.5,"19:36:48",1
"16/05/08","19:50",0.0,17.7,62.7,1010.7,303.1,1.0,1.3,303.4,0.00,10.5,19.5,"19:43:04",1
"16/05/08","20:00",0.0,17.4,63.7,1011.4,301.3,1.1,1.7,302.3,0.00,10.5,19.2,"19:59:04",1
"16/05/08","20:10",0.0,17.5,62.3,1011.6,321.0,1.6,2.4,340.2,0.00,10.3,19.2,"20:07:04",1
"16/05/08","20:20",0.0,17.4,59.6,1011.4,321.7,1.5,2.6,338.1,0.00,9.5,19.2,"20:16:42",1
"16/05/08","20:30",0.0,17.3,60.6,1012.3,329.4,1.5,1.9,345.3,0.00,9.7,19.2,"20:26:32",1
"16/05/08","20:40",0.0,17.2,62.2,1011.9,331.3,1.6,2.8,342.2,0.00,10.0,18.9,"20:31:52",1
"16/05/08","20:50",0.0,16.8,63.7,1012.1,319.7,1.6,2.2,341.1,0.00,9.9,18.8,"20:40:16",1
"16/05/08","21:00",0.0,16.8,63.2,1012.1,316.8,2.0,2.5,315.1,0.00,9.8,18.7,"20:58:56",1
"16/05/08","21:10",0.0,16.8,63.6,1012.3,321.6,2.1,2.9,310.0,0.00,9.9,18.8,"21:03:12",1
"16/05/08","21:20",0.0,16.6,64.8,1012.6,322.3,1.6,2.2,340.6,0.00,10.0,18.7,"21:11:44",1
"16/05/08","21:30",0.0,16.4,66.8,1012.3,321.9,1.7,3.1,336.0,0.00,10.3,18.6,"21:27:52",1
"16/05/08","21:40",0.0,16.2,67.5,1012.3,337.0,2.2,3.7,337.1,0.00,10.2,18.7,"21:38:16",1
"16/05/08","21:50",0.0,16.1,68.1,1012.1,330.6,2.1,3.2,332.4,0.00,10.3,18.3,"21:44:08",1
"16/05/08","22:00",0.0,16.1,67.7,1012.3,314.4,2.0,2.7,321.6,0.00,10.2,18.3,"21:56:00",1
"16/05/08","22:10",0.0,16.0,67.8,1012.3,301.3,1.2,2.1,302.1,0.00,10.1,18.4,"22:02:32",1
"16/05/08","22:20",0.0,15.6,68.7,1012.3,291.2,0.8,1.2,265.4,0.00,9.9,18.2,"22:14:40",1
"16/05/08","22:30",0.0,15.3,70.2,1012.3,304.0,1.2,1.6,322.5,0.00,9.9,18.3,"22:26:08",1
"16/05/08","22:40",0.0,15.0,71.4,1012.3,296.6,1.0,1.3,311.7,0.00,9.9,18.1,"22:30:32",1
"16/05/08","22:50",0.0,14.9,72.0,1012.3,292.3,1.0,1.4,311.2,0.00,9.9,18.1,"22:46:48",1
"16/05/08","23:00",0.0,14.7,72.5,1012.6,303.0,0.8,1.2,305.6,0.00,9.9,18.0,"22:50:32",1
"16/05/08","23:10",0.0,14.5,74.3,1012.6,312.0,1.1,1.4,309.8,0.00,10.0,17.7,"23:08:56",1
"16/05/08","23:20",0.0,14.1,76.4,1012.3,307.8,1.2,1.6,311.2,0.00,10.1,17.9,"23:11:44",1
"16/05/08","23:30",0.0,14.1,77.7,1012.6,307.4,1.0,1.4,315.3,0.00,10.3,17.6,"23:22:48",1
"16/05/08","23:40",0.0,13.9,78.4,1011.9,302.4,1.1,1.7,321.6,0.00,10.2,17.7,"23:39:28",1
"16/05/08","23:50",0.0,13.9,78.5,1012.3,296.6,1.1,1.4,314.7,0.00,10.3,17.6,"23:41:44",1
"16/05/08","24:00",0.0,14.1,78.6,1012.3,299.3,1.1,1.7,321.6,0.00,10.5,17.6,"23:54:32",1
